Weather History for Winner, SD

Change the Weather History Date:

Thursday, May 9, 2013

  Actual Average Record
Temperature  
Mean Temperature 59 °F 56 °F  
Max Temperature 70 °F 68 °F 86 °F (2011)
Min Temperature 47 °F 44 °F 35 °F (2012)
Degree Days  
Heating Degree Days 6 10  
Month to date heating degree days 138 98  
Since 1 July heating degree days 6540 6502  
Cooling Degree Days 0 1  
Month to date cooling degree days 0 4  
Year to date cooling degree days 2 6  
Growing Degree Days 8 (Base 50)    
Moisture  
Dew Point 44 °F    
Average Humidity 65    
Maximum Humidity 96    
Minimum Humidity 34    
Precipitation  
Precipitation 0.00 in 0.10 in 0.06 in (2008)
Month to date precipitation 0.25 1.01  
Year to date precipitation 1.71 5.64  
Sea Level Pressure  
Sea Level Pressure 30.08 in    
Wind  
Wind Speed 10 mph (North)    
Max Wind Speed 21 mph    
Max Gust Speed 26 mph    
Visibility 9 miles    
Events      
T = Trace of Precipitation, MM = Missing Value Source: NWS Daily Summary

Daily Weather History Graph

Daily Weather History Graph

Search for Another Location

Airport:

Trip Planner

Search our weather history database for the weather conditions in past years. The results will help you decide how hot, cold, wet, or windy it might be!

Date:

Astronomy

May. 09, 2013 Rise Set
Actual Time 6:21 AM CDT 8:50 PM CDT
Civil Twilight 5:49 AM CDT 9:23 PM CDT
Nautical Twilight 5:09 AM CDT 10:03 PM CDT
Astronomical Twilight 4:23 AM CDT 10:49 PM CDT
Moon 6:07 AM CDT (5/9) 8:47 PM CDT (5/9)
Length of Visible Light 15h 33m
Length of Day
14h 29m
Waning Crescent, 0% of the Moon is Illuminated
May 9
Waning Crescent
May 9
New
May 17
First Quarter
May 24
Full
May 31
Last Quarter

Hourly Weather History & Observations

Time (CDT) Temp. Windchill Dew Point Humidity Pressure Visibility Wind Dir Wind Speed Gust Speed Precip Events Conditions
12:53 AM 50.0 °F - 46.0 °F 86% 30.01 in 10.0 mi WNW 3.5 mph - N/A   Clear
1:53 AM 48.0 °F - 46.0 °F 93% 30.01 in 9.0 mi NNW 6.9 mph - N/A   Clear
2:53 AM 48.9 °F - 46.9 °F 93% 30.02 in 6.0 mi Calm Calm - N/A   Mostly Cloudy
3:27 AM 48.2 °F - 48.2 °F 100% 30.04 in 5.0 mi NNW 3.5 mph - N/A   Overcast
3:53 AM 50.0 °F - 48.0 °F 93% 30.03 in 4.0 mi NNW 5.8 mph - N/A   Overcast
4:38 AM 51.8 °F - 48.2 °F 88% 30.05 in 3.0 mi North 6.9 mph - N/A   Overcast
4:53 AM 51.1 °F - 50.0 °F 96% 30.04 in 3.0 mi NNW 9.2 mph - N/A   Overcast
5:20 AM 51.8 °F - 50.0 °F 94% 30.06 in 5.0 mi North 11.5 mph - N/A   Overcast
5:33 AM 51.8 °F - 48.2 °F 88% 30.06 in 6.0 mi North 10.4 mph - N/A   Overcast
5:53 AM 51.1 °F - 48.0 °F 89% 30.06 in 10.0 mi NNW 8.1 mph - N/A   Overcast
6:16 AM 50.0 °F - 46.4 °F 87% 30.07 in 10.0 mi NNW 13.8 mph - N/A   Overcast
6:53 AM 48.0 °F - 43.0 °F 83% 30.09 in 10.0 mi North 13.8 mph - N/A   Overcast
7:53 AM 46.9 °F - 39.9 °F 77% 30.12 in 10.0 mi NNW 9.2 mph - N/A   Overcast
8:48 AM 46.4 °F 41.5 °F 39.2 °F 76% 30.12 in 10.0 mi North 10.4 mph - N/A   Overcast
8:53 AM 48.0 °F - 39.9 °F 74% 30.13 in 10.0 mi North 11.5 mph - N/A   Overcast
9:18 AM 48.2 °F - 39.2 °F 71% 30.12 in 10.0 mi NNW 12.7 mph - N/A   Overcast
9:53 AM 50.0 °F - 39.9 °F 68% 30.14 in 10.0 mi NNW 18.4 mph - N/A   Mostly Cloudy
10:36 AM 53.6 °F - 42.8 °F 67% 30.13 in 10.0 mi NNW 10.4 mph - N/A   Mostly Cloudy
10:53 AM 53.1 °F - 44.1 °F 71% 30.14 in 10.0 mi NNW 11.5 mph - N/A   Overcast
11:21 AM 57.2 °F - 46.4 °F 67% 30.12 in 10.0 mi North 16.1 mph 20.7 mph N/A   Mostly Cloudy
11:30 AM 59.0 °F - 46.4 °F 63% 30.12 in 10.0 mi NNW 15.0 mph - N/A   Scattered Clouds
12:53 PM 64.0 °F - 45.0 °F 50% 30.11 in 10.0 mi North 19.6 mph - N/A   Partly Cloudy
1:53 PM 64.9 °F - 44.1 °F 47% 30.11 in 10.0 mi NNE 15.0 mph - N/A   Overcast
2:53 PM 66.9 °F - 45.0 °F 45% 30.10 in 10.0 mi NNE 10.4 mph 21.9 mph N/A   Scattered Clouds
3:53 PM 69.1 °F - 46.0 °F 44% 30.08 in 10.0 mi NNE 13.8 mph - N/A   Mostly Cloudy
4:53 PM 70.0 °F - 44.1 °F 39% 30.07 in 10.0 mi NNE 13.8 mph 25.3 mph N/A   Scattered Clouds
5:53 PM 68.0 °F - 43.0 °F 40% 30.06 in 10.0 mi NNE 11.5 mph - N/A   Mostly Cloudy
6:53 PM 68.0 °F - 39.9 °F 36% 30.06 in 10.0 mi North 13.8 mph - N/A   Clear
7:53 PM 66.0 °F - 37.9 °F 36% 30.07 in 10.0 mi NNE 13.8 mph - N/A   Partly Cloudy
9:53 PM 57.0 °F - 37.0 °F 47% 30.11 in 10.0 mi NNE 8.1 mph - N/A   Overcast
10:53 PM 55.9 °F - 37.0 °F 49% 30.12 in 10.0 mi NNE 6.9 mph - N/A   Overcast